Flag for Egypt Weather past 2 weeks in Port Said, Egypt

Now
77 °F

Clear.


Feels Like: 79 °F
Forecast: 74 / 83 °F
Wind: 14 mph from Northwest

Location: Port Said Airport

Current Time: Jul 6, 2015 at 8:43:43 PM

Latest Report: Jul 6, 2015 at 8:00 PM


Visibility: 10 mi

Pressure: 29.89 "Hg

Humidity: 79%

Dew point: 70 °F

Location of Port SaidLocation

Historic Weather in Port Said — Graph

°F

Port Said temperature yesterday

Maximum temperature yesterday: 82 °F (at 1:00 PM)
Minimum temperature yesterday: 72 °F (at 4:00 AM)
Average temperature yesterday: 78 °F

Past Weeks' High & Low Weather Summary

 TemperatureHumidityPressure
High93 °F (Jun 27, 7:00 PM)89% (Jul 5, 9:00 PM)30.01 "Hg (Jul 5, 9:00 PM)
Low72 °F (Jul 5, 4:00 AM)24% (Jun 27, 1:00 PM)29.56 "Hg (Jun 27, 4:00 PM)
Average78 °F71%29.88 "Hg
* Reported Jun 21 8:00 PM — Jul 6 7:00 PM, Port Said, Weather by CustomWeather, © 2015

Note: Actual official high and low records may vary slightly from our data, if they occured in-between our weather recording intervals... More about our weather records

Advertising

Port Said weather history for previous 24 hours

 ConditionsComfort  
Time TempWeatherWind HumidityBarometerVisibility
7:00 PM
Mon, Jul 6
79 °FClear.14 mph74%29.86 "Hg10 mi
6:00 PM79 °FSunny.15 mph74%29.86 "Hg10 mi
5:00 PM81 °FSunny.15 mph74%29.86 "Hg10 mi
4:00 PM81 °FSunny.15 mph74%29.86 "Hg10 mi
3:00 PM81 °FSunny.14 mph70%29.89 "Hg10 mi
2:00 PM82 °FSunny.13 mph66%29.89 "Hg10 mi
1:00 PM81 °FSunny.13 mph74%29.89 "Hg10 mi
12:00 PM81 °FSunny.10 mph70%29.89 "Hg10 mi
11:00 AM81 °FScattered clouds.9 mph70%29.92 "HgN/A
10:00 AM81 °FScattered clouds.7 mph70%29.92 "HgN/A
9:00 AM79 °FScattered clouds.9 mph74%29.89 "HgN/A
8:00 AM79 °FScattered clouds.10 mph74%29.89 "HgN/A
7:00 AM77 °FScattered clouds.9 mph83%29.89 "HgN/A
6:00 AM77 °FScattered clouds.9 mph83%29.89 "HgN/A
3:00 AM75 °FClear.10 mph89%29.89 "Hg10 mi
2:00 AM77 °FPassing clouds.10 mph83%29.89 "HgN/A
1:00 AM77 °FPassing clouds.12 mph83%29.89 "HgN/A
12:00 AM77 °FPassing clouds.10 mph89%29.89 "HgN/A
11:00 PM
Sun, Jul 5
77 °FPassing clouds.13 mph89%29.89 "HgN/A
10:00 PM77 °FPassing clouds.14 mph89%29.89 "HgN/A
9:00 PM77 °FPassing clouds.14 mph89%29.89 "HgN/A
8:00 PM79 °FClear.14 mph84%29.89 "Hg10 mi
Weather by CustomWeather, © 2015

See weather overviewHow to use our weather pages